sat.trackr.live / text

‹ back to catalog

STARLINK-4094

NORAD 53147 · 2022-083R

PAYLOAD ACTIVE UNKNOWN

§ Identity

Operator
Country
US
Launch date
2022-07-17
Launch site
AFETR
Launch vehicle
Mass (kg)
RCS (m²)

Purposes: comms

External: N2YO · Heavens-Above · Gunter

§ Orbital elements

Epoch: 2026-09-19T21:56:21.803136Z

Period
93.85 min
Inclination
53.1615°
Eccentricity
0.0000864
Mean motion
15.34393786 rev/d
Perigee alt
462.1 km
Apogee alt
463.3 km
Semi-major
6,840.9 km
B*
2.9651e-5
RAAN
6.1380°
Arg perigee
76.2880°
Mean anomaly
283.8219°
Rev number
23,141

§ Raw data

STARLINK-40941 53147U 22083R   26262.91414124  .00000626  00000+0  29651-4 0  99992 53147  53.1615   6.1380 0000864  76.2880 283.8219 15.34393786231413

JSON: /api/v1/satellites/53147 · /tle

For live sub-satellite position, see the globe view (requires WebGL).

§ Visibility from observer

Set your observer location to see the next 7 days of passes ≥ 10°. The values pass through the URL so the page stays shareable.

No JS? Fill the form by hand. The geolocation button needs JavaScript.